World > North America > United States > New York

Hourly North Petersburg, NY Regional Weather

Feedback E-mail the Weather

Quick WX

North Petersburg, NY Weather Maps

°F °C°F °C
North Petersburg Weather Map
UTC Time: 7/3/2022, 23:57
Your Time:

North Petersburg, NY Regional Weather

Expires:202207040000;;633724
ASUS41 KALY 032310
RWRALY

NEW YORK STATE HOURLY WEATHER ROUNDUP
NATIONAL WEATHER SERVICE ALBANY NY
700 PM EDT SUN JUL 03 2022

NOTE: "FAIR" INDICATES FEW OR NO CLOUDS BELOW 12,000 FEET WITH NO
SIGNIFICANT WEATHER AND/OR NO OBSTRUCTIONS TO VISIBILITY.


NYZ032-033-038>043-046>054-057>066-NYZ062>081-082-084-040000-
EAST

  
CITY           SKY/WX    TMP DP  RH WIND       PRES   REMARKS
ALBANY         MOSUNNY   79  50  36 W16       30.02R                  
GLENS FALLS    MOSUNNY   77  46  33 N12       30.00R                  
POUGHKEEPSIE   SUNNY     82  46  28 NW6       30.00R                  
NEWBURGH       SUNNY     81  45  28 NW13      30.03R                  
MONTGOMERY     SUNNY     79  44  28 NW8       30.02R                  
WHITE PLAINS   SUNNY     82  50  32 W10       30.01R                  
ISLIP          MOSUNNY   79  57  46 VRB6      30.00R                  
NEW YORK CITY  MOSUNNY   84  50  30 NW14      29.99R                  
CENTRAL PARK   SUNNY     83  46  27 MISG      30.03R                  
$$


SKY/WX - Weather  TMP - Temperature  DP - Dew Point  RH - Humidity
WIND - Wind Direction/Speed PRES - Barometric Pressure VSB - Visibility
WCI - Wind Chill Index E13G22 Wind - East Wind 13 mph/Gusts of 22 mph

Trending Headlines

North Petersburg Radar Loop



North Petersburg Quick Facts


National Two Day Weather Forecast


E-mail the North Petersburg Weather Forecast

Voice your opinion or tell us about page issues...